Probability
0 1 2 4 5 7 10 14 15 12 9 8 10 10 8 7 6 5 3 3 2 1 0 0 0 0 1 2 4 6 6 6 6 3 1 0 1 3 3 2 1 0 0
0 1 3 4 4 6 9 12 12 10 7 7 8 8 7 6 4 3 3 3 2 0 0 0 0 1 2 3 4 6 6 6 6 3 1 0 2 3 3 3 1 0 0
1 2 4 4 4 6 9 10 9 8 6 5 5 6 5 5 4 3 3 4 3 1 0 0 0 1 2 2 4 6 7 6 5 3 1 0 1 3 3 3 2 1 0
3 3 5 6 6 7 9 10 10 8 5 3 3 4 5 5 5 4 5 6 5 2 1 1 0 0 1 2 4 6 7 6 4 2 0 0 1 2 3 3 3 1 0
4 4 5 6 6 7 9 11 10 8 5 4 4 5 5 6 6 5 6 6 5 3 2 2 1 1 2 3 3 4 5 4 3 2 0 0 0 1 3 3 3 2 1
3 3 5 7 7 8 10 11 9 7 6 4 4 5 5 5 6 6 5 5 4 3 3 3 1 1 2 3 3 3 3 3 2 1 0 0 0 1 2 3 3 1 0
2 3 5 9 10 10 10 8 6 6 6 5 5 6 6 6 6 5 5 4 3 2 3 3 2 1 2 2 3 3 3 3 1 0 0 0 1 2 2 2 2 1 0
2 2 4 7 10 11 10 6 4 4 5 5 5 6 6 6 5 4 4 2 1 1 2 2 2 2 2 1 1 3 3 2 1 0 0 0 1 2 2 2 1 0 0
2 2 2 3 6 8 8 5 3 2 2 3 3 5 5 5 4 4 3 1 0 0 1 1 2 3 2 1 1 2 3 2 1 0 0 0 0 2 3 2 1 0 0
2 1 1 1 3 5 4 3 2 1 0 1 2 3 3 3 3 3 2 1 0 0 0 1 1 1 1 0 1 2 2 1 0 0 0 0 1 2 3 3 1 1 1
2 1 0 0 2 3 1 1 1 1 0 0 1 1 1 1 1 2 2 1 1 0 0 0 0 0 0 0 1 2 1 0 0 0 0 0 2 4 4 4 3 3 3
2 1 0 0 0 1 0 0 1 1 1 1 1 1 1 0 0 0 1 1 1 0 0 0 0 0 0 0 1 1 0 0 0 0 0 0 2 5 6 6 6 6 6
1 0 0 1 1 0 0 0 1 2 2 2 2 2 1 0 0 0 0 0 0 0 0 0 0 0 0 0 0 0 0 0 0 0 0 0 2 5 7 7 7 6 6
1 1 1 2 2 1 0 0 1 2 3 3 3 1 0 0 0 0 0 0 0 0 0 0 0 0 0 0 0 0 0 0 0 0 0 0 2 5 8 8 7 6 6
3 3 4 4 5 4 2 1 1 1 1 2 2 1 1 0 0 0 0 0 0 0 0 0 0 0 0 0 0 0 0 0 0 0 0 1 3 6 8 9 9 7 5
4 4 5 6 7 6 4 3 2 2 1 2 3 2 1 0 0 0 0 0 0 0 0 0 0 0 0 0 0 0 0 0 0 0 0 1 4 8 10 10 10 8 5
5 4 5 6 6 6 5 4 3 3 3 2 2 2 1 0 0 0 0 0 0 0 0 0 0 0 0 0 0 0 0 0 0 0 0 0 3 7 10 11 10 10 9
7 5 5 5 5 6 5 4 3 3 3 2 1 1 0 0 0 0 0 0 0 0 0 0 0 0 0 0 0 0 0 0 0 0 0 0 1 3 6 8 10 11 12
10 7 5 4 4 5 5 4 4 3 1 1 0 0 0 0 0 0 0 0 0 0 0 0 0 0 0 0 0 0 0 0 0 0 0 0 0 0 2 4 7 9 10
12 10 6 4 3 4 4 4 5 3 1 0 0 0 0 0 0 0 0 0 0 0 0 0 0 0 0 0 0 0 0 0 0 0 0 0 0 0 0 1 2 5 7
12 11 8 5 3 4 4 4 5 4 2 1 0 0 0 0 0 0 0 0 0 0 0 0 0 0 0 0 0 0 0 0 0 0 0 0 0 0 0 0 1 2 4
12 12 10 7 5 4 4 4 4 3 2 1 0 0 0 0 0 0 0 0 0 0 0 0 0 0 0 0 0 0 0 0 0 0 0 0 0 0 0 0 1 2 2
13 13 14 12 8 6 6 5 4 3 2 1 0 0 0 0 0 0 0 0 0 0 0 0 0 0 0 0 0 0 0 0 0 0 0 0 0 0 0 0 1 1 0
17 16 16 16 13 10 7 6 4 3 1 0 0 0 0 1 2 1 0 0 0 1 1 1 1 0 1 1 0 0 0 0 0 0 0 0 0 0 0 0 0 0 0
20 18 17 18 18 14 10 6 3 2 1 1 1 1 0 1 2 2 1 0 1 1 2 2 2 1 1 1 0 0 0 0 0 0 0 0 0 0 0 0 0 0 0
21 20 20 20 19 17 13 7 2 1 2 2 2 2 1 0 1 2 2 1 1 1 2 3 2 1 1 1 0 0 0 0 0 0 0 0 0 0 0 0 0 0 0
Wind_Speed
3 5 12 13 14 15 16 15 16 16 16 17 18 19 19 19 19 19 19 19 18 17 16 16 15 15 14 14 14 14 14 14 14 15 14 14 14 13 13 14 13 10 14
6 7 13 14 14 15 16 16 15 16 16 17 18 18 19 18 18 19 19 18 17 17 16 15 15 15 14 14 14 14 13 14 14 14 14 13 13 13 13 14 13 9 14
6 6 11 14 14 15 16 16 15 15 16 17 17 18 18 18 18 18 18 18 17 17 16 15 14 14 14 13 13 13 13 13 13 13 12 6 8 12 13 14 13 13 13
7 6 9 15 15 15 15 16 16 16 16 17 17 17 18 18 18 18 18 17 17 16 15 14 14 13 13 13 12 12 12 12 12 12 5 5 6 12 13 13 13 13 12
6 6 9 15 15 15 16 15 15 16 16 17 17 17 18 18 17 17 17 17 16 16 15 14 13 12 12 12 11 10 10 10 11 8 4 4 5 11 13 13 13 12 12
6 6 10 15 15 15 16 16 15 16 16 16 16 17 18 18 17 17 17 16 16 15 14 13 12 11 11 11 10 9 9 10 8 5 4 4 5 11 13 12 12 12 11
7 6 9 14 15 15 15 16 16 16 16 16 16 16 17 17 17 16 16 15 15 14 13 11 10 10 10 10 9 8 7 8 5 5 4 4 5 11 12 12 11 11 10
8 7 7 13 15 15 15 15 15 16 16 16 16 16 16 16 16 16 15 15 14 14 12 11 10 9 9 8 7 6 6 6 6 5 5 4 8 11 12 11 11 11 10
8 7 5 6 9 13 14 14 14 15 15 15 15 16 16 16 16 15 15 14 14 13 12 10 9 8 8 7 6 5 5 5 4 4 6 5 9 12 12 11 11 10 10
6 5 5 4 4 5 7 12 14 14 15 15 15 15 15 15 15 15 14 14 14 13 12 10 9 7 7 6 5 4 3 4 3 4 3 6 11 13 12 11 11 10 10
6 4 4 4 4 4 5 9 11 13 13 13 12 14 12 7 7 9 13 14 14 13 12 10 9 7 5 4 4 3 1 1 2 3 3 8 12 13 12 11 11 10 10
6 4 3 4 4 4 5 4 4 5 6 5 5 6 5 5 5 7 11 14 13 12 11 10 8 6 3 1 2 2 1 1 2 3 4 11 12 13 13 12 11 11 10
7 6 4 4 4 4 3 3 2 3 4 4 5 5 5 4 4 4 3 6 6 8 5 5 4 2 2 1 1 1 1 1 2 3 5 12 12 13 13 12 11 11 10
7 6 5 5 4 4 3 3 3 3 3 3 4 5 5 3 3 3 3 3 3 2 3 3 2 2 2 2 2 2 2 1 2 2 5 12 12 13 13 13 12 11 11
8 6 5 5 5 4 4 3 4 4 4 4 4 4 5 4 4 4 3 3 3 3 3 3 3 3 2 2 2 3 2 3 3 3 3 11 12 12 13 13 13 12 12
8 7 5 5 5 5 4 3 4 4 4 4 4 5 5 4 4 4 4 3 3 3 3 3 3 3 2 2 2 2 3 3 3 4 3 6 11 12 12 13 13 13 13
8 7 6 6 5 5 5 4 4 4 4 4 4 5 6 5 5 5 4 4 3 3 4 3 2 1 2 2 2 2 2 3 3 4 4 3 5 10 12 12 13 13 13
8 7 7 7 6 5 4 4 4 4 4 4 4 4 5 6 6 5 4 4 4 3 3 3 2 2 1 1 1 2 1 2 3 3 3 4 4 5 8 13 12 12 13
9 8 7 6 6 6 5 4 3 3 4 4 4 4 5 6 6 5 4 3 4 3 3 3 3 3 2 1 2 2 2 2 3 4 4 5 5 5 4 8 12 12 13
9 8 7 7 6 5 4 3 2 3 3 4 5 5 6 5 5 5 4 4 4 3 3 3 3 2 2 2 2 2 2 2 2 3 4 4 4 6 6 6 5 8 12
9 8 8 7 6 5 3 3 3 3 3 3 4 6 6 6 6 5 4 4 4 4 4 4 3 2 2 1 1 1 2 2 2 3 3 3 4 5 5 5 4 4 5
11 10 8 8 7 6 4 3 3 3 3 3 4 5 6 6 6 6 5 4 5 4 4 4 3 2 2 2 2 1 2 3 2 2 2 3 4 3 4 6 5 5 4
11 11 10 8 7 6 5 3 2 2 2 2 3 3 5 6 6 5 6 5 5 5 4 5 5 4 3 2 3 3 2 2 2 2 2 2 3 3 3 3 5 6 6
12 10 9 8 7 6 6 5 5 5 4 4 4 3 4 5 6 6 6 6 5 4 5 5 4 4 4 3 2 2 3 4 2 2 3 2 3 3 3 3 4 5 6
11 10 9 8 7 6 6 6 5 4 4 3 3 4 4 4 5 6 6 5 5 5 5 5 4 4 4 4 3 2 1 1 2 2 3 3 2 3 3 3 3 3 4
9 8 8 8 8 7 7 6 6 6 5 4 4 4 4 3 4 5 6 5 5 5 6 6 5 5 4 4 3 3 3 2 3 3 3 3 3 3 3 2 2 3 3
Wind_Direction
163 154 139 134 128 127 126 125 123 122 122 121 121 121 121 123 125 127 129 130 132 131 129 128 127 126 125 124 124 121 120 119 118 116 116 116 116 116 113 111 109 108 112
158 157 143 137 132 128 126 126 126 125 124 124 124 124 124 125 126 127 129 131 131 132 132 130 127 126 126 126 125 122 121 120 119 119 118 117 118 118 118 116 114 117 116
145 151 144 139 135 131 129 129 129 128 127 127 127 127 127 127 128 129 130 131 131 131 132 131 129 128 127 127 127 125 124 123 121 119 116 111 118 120 120 120 120 120 119
137 140 142 139 137 134 131 130 132 131 131 130 130 131 131 130 130 131 131 130 131 132 132 132 132 131 130 130 129 128 128 127 127 125 118 118 122 125 124 125 124 124 124
123 129 138 136 138 135 133 133 134 133 133 133 134 134 134 134 134 134 133 132 132 132 133 133 134 135 134 132 130 131 131 131 130 124 123 124 125 133 131 130 128 128 127
119 123 133 134 138 137 138 138 138 137 137 137 137 137 138 139 138 138 135 134 134 133 133 134 137 139 139 136 134 134 133 135 128 126 131 134 135 141 139 136 134 133 131
120 124 133 134 137 139 141 141 140 140 141 142 142 142 142 142 142 142 139 138 138 137 138 138 140 143 144 141 139 138 134 138 133 136 141 141 147 146 143 141 140 139 138
125 121 127 133 140 142 142 143 142 143 143 144 145 145 146 146 145 145 144 144 144 144 144 142 143 145 147 146 144 141 136 137 134 142 143 151 157 152 149 148 147 148 147
122 124 125 133 139 144 145 144 145 147 148 148 148 149 151 151 151 151 149 149 150 150 150 149 145 147 152 155 157 159 152 133 130 144 154 157 161 158 156 156 157 158 158
111 116 118 126 129 137 143 148 149 150 152 152 151 152 154 155 155 157 155 156 157 156 155 155 153 152 159 168 175 177 158 121 134 151 151 166 167 165 164 164 164 166 166
117 118 120 126 126 132 145 153 153 154 156 155 155 154 152 152 152 157 161 164 164 163 163 165 166 164 164 176 188 196 167 127 141 159 165 173 173 171 171 172 173 175 176
136 137 130 138 141 138 142 138 143 149 151 148 146 150 142 140 153 159 171 171 170 170 172 177 180 179 176 177 201 223 153 155 164 174 180 179 179 177 178 180 182 184 186
152 148 144 146 144 141 133 131 130 134 136 138 142 142 141 139 151 157 162 169 169 172 173 179 181 181 184 203 211 208 189 168 175 184 184 185 184 184 186 188 189 192 194
148 152 153 149 145 141 136 137 137 137 138 143 149 148 145 146 152 157 155 154 162 167 168 176 179 190 197 207 210 213 205 190 171 176 186 188 190 192 194 195 197 199 200
150 151 151 145 142 145 140 147 143 145 148 152 154 155 150 152 157 160 159 160 167 165 172 174 177 191 201 215 220 207 191 184 179 179 188 193 194 197 200 202 204 207 208
157 155 152 142 145 148 147 144 144 151 150 152 159 163 159 158 158 159 162 168 176 178 181 181 184 187 201 210 217 212 202 195 187 185 191 199 202 202 206 210 213 212 213
160 156 155 151 148 149 149 151 146 152 154 158 163 165 164 160 158 160 163 174 182 176 174 176 178 173 196 201 209 225 207 201 201 199 193 196 203 211 213 216 219 218 219
159 157 162 158 151 149 149 148 144 150 154 161 162 165 167 163 160 158 167 180 181 172 170 173 174 176 200 198 213 237 228 207 207 210 200 200 201 213 218 220 221 220 223
164 163 163 157 157 158 154 152 152 150 156 164 165 167 170 169 167 165 172 177 172 170 173 183 173 173 184 207 224 242 238 222 218 218 213 210 206 211 214 222 224 224 227
167 164 164 161 165 163 153 145 148 155 165 169 171 172 171 173 173 170 173 176 169 166 176 177 172 178 184 191 227 265 268 251 233 220 217 213 219 220 217 221 222 227 228
166 167 169 168 174 166 158 164 167 174 170 169 176 172 174 175 173 169 174 173 173 176 185 180 168 175 199 156 97 339 319 288 248 235 222 209 224 225 219 219 217 217 228
172 173 173 175 174 174 175 175 170 161 165 169 173 176 180 177 175 175 173 178 179 176 179 182 170 165 201 169 146 105 336 328 303 252 232 220 227 228 229 223 216 213 216
176 175 177 178 175 176 171 152 142 122 118 147 167 182 188 182 181 181 181 181 183 179 185 192 183 176 191 202 174 159 168 233 291 303 274 246 240 232 237 233 220 216 213
180 176 174 173 171 174 171 165 163 168 177 190 185 188 192 188 187 189 187 185 184 183 186 196 190 182 177 197 214 204 187 176 187 282 302 278 258 241 238 237 233 224 220
176 175 175 171 172 175 176 176 175 178 181 176 174 183 194 196 196 196 190 187 188 189 192 197 194 192 185 191 197 202 214 216 189 185 263 285 287 264 245 228 228 229 225
174 173 176 175 179 180 178 178 179 179 179 177 185 191 199 201 204 204 196 193 195 195 197 199 201 200 199 198 202 196 190 196 204 194 223 252 265 272 262 237 224 235 230